Weather History for St. Johnsbury, VT

Change the Weather History Date:

Wednesday, November 21, 2012

  Actual Average Record
Temperature  
Mean Temperature 38 °F 34 °F  
Max Temperature 50 °F 42 °F 67 °F (1991)
Min Temperature 25 °F 26 °F -7 °F (1933)
Degree Days  
Heating Degree Days 27 31  
Month to date heating degree days 612 569  
Since 1 July heating degree days 1339 1356  
Moisture  
Dew Point 25 °F    
Average Humidity 65    
Maximum Humidity 92    
Minimum Humidity 38    
Precipitation  
Precipitation 0.00 in 0.11 in 1.26 in (1954)
Month to date precipitation 0.85 2.41  
Year to date precipitation 30.54 35.43  
Sea Level Pressure  
Sea Level Pressure 30.24 in    
Wind  
Wind Speed - (North)    
Max Wind Speed -    
Max Gust Speed -    
T = Trace of Precipitation, MM = Missing Value Source: NWS Daily Summary

Daily Weather History Graph

Daily Weather History Graph

Search for Another Location

Airport:

Trip Planner

Search our weather history database for the weather conditions in past years. The results will help you decide how hot, cold, wet, or windy it might be!

Date:

Astronomy

Nov. 21, 2012 Rise Set
Actual Time 6:52 AM EST 4:15 PM EST
Civil Twilight 6:20 AM EST 4:47 PM EST
Nautical Twilight 5:44 AM EST 5:22 PM EST
Astronomical Twilight 5:10 AM EST 5:57 PM EST
Moon 12:43 PM EST (11/21) No Moon Set
Length of Visible Light 10h 26m
Length of Day
9h 22m
First Quarter, 61% of the Moon is Illuminated
Nov 21
First Quarter
Nov 28
Full
Dec 6
Last Quarter
Dec 13
New
Dec 20
First Quarter

Hourly Weather History & Observations

Time (EST) Temp. Dew Point Humidity Pressure Visibility Wind Dir Wind Speed Gust Speed Precip Events Conditions
12:54 AM 30.0 °F 27.0 °F 88% 30.20 in - North - - N/A   Unknown
1:54 AM 30.0 °F 26.1 °F 85% 30.20 in - North - - N/A   Unknown
2:54 AM 30.0 °F 27.0 °F 88% 30.20 in - North - - N/A   Unknown
3:54 AM 30.0 °F 26.1 °F 85% 30.21 in - North - - N/A   Unknown
4:54 AM 28.9 °F 25.0 °F 85% 30.23 in - North - - N/A   Unknown
5:54 AM 28.0 °F 26.1 °F 92% 30.24 in - North - - N/A   Unknown
6:54 AM 27.0 °F 25.0 °F 92% 30.27 in - North - - N/A   Unknown
7:54 AM 27.0 °F 25.0 °F 92% 30.30 in - North - - N/A   Unknown
8:54 AM 28.9 °F 26.1 °F 89% 30.30 in - North - - N/A   Unknown
9:54 AM 34.0 °F 28.0 °F 79% 30.28 in - North - - N/A   Unknown
10:54 AM 39.9 °F 28.0 °F 63% 30.25 in - North - - N/A   Unknown
11:54 AM 45.0 °F 27.0 °F 49% 30.22 in - North - - N/A   Unknown
12:54 PM 46.9 °F 24.1 °F 41% 30.21 in - North - - N/A   Unknown
1:54 PM 48.9 °F 24.1 °F 38% 30.20 in - North - - N/A   Unknown
2:54 PM 48.9 °F 24.1 °F 38% 30.20 in - North - - N/A   Unknown
3:54 PM 46.9 °F 23.0 °F 39% 30.22 in - North - - N/A   Unknown
4:54 PM 37.9 °F 26.1 °F 62% 30.24 in - North - - N/A   Unknown
5:54 PM 34.0 °F 25.0 °F 70% 30.25 in - North - - N/A   Unknown
6:54 PM 30.9 °F 24.1 °F 76% 30.27 in - North - - N/A   Unknown
7:54 PM 28.9 °F 23.0 °F 78% 30.27 in - North - - N/A   Unknown
8:54 PM 28.0 °F 23.0 °F 81% 30.27 in - North - - N/A   Unknown
9:54 PM 27.0 °F 23.0 °F 85% 30.27 in - North - - N/A   Unknown
10:54 PM 26.1 °F 21.9 °F 84% 30.27 in - North - - N/A   Unknown
11:54 PM 25.0 °F 21.9 °F 88% 30.27 in - North - - N/A   Unknown